Temp
-14 -13 -14 -15 -12 -11 -11 -11 -12 -12 -11 -11 -11 -9 -9 -9 -9 -9 -9 -9 -9 -9 -9 -8 -8 -7 -6 -7 -7 -7 -7 -7 -7 -7 -6 -6 -7 -7 -6 -7 -7 -7 -6 -5
-15 -14 -14 -13 -12 -11 -11 -12 -13 -13 -11 -10 -10 -10 -9 -9 -9 -9 -9 -9 -9 -9 -9 -9 -8 -8 -7 -7 -8 -8 -7 -7 -7 -7 -7 -7 -7 -7 -7 -7 -7 -7 -7 -6
-17 -16 -15 -14 -13 -13 -13 -13 -14 -14 -11 -10 -10 -10 -10 -10 -10 -9 -9 -9 -9 -9 -9 -10 -9 -9 -8 -8 -8 -8 -7 -8 -7 -7 -7 -7 -7 -7 -7 -7 -7 -7 -7 -7
-17 -16 -15 -15 -14 -13 -14 -13 -14 -13 -10 -10 -11 -11 -11 -10 -10 -10 -10 -10 -9 -9 -9 -9 -9 -9 -9 -9 -8 -8 -8 -8 -8 -8 -8 -8 -7 -7 -6 -6 -7 -7 -7 -7
-16 -17 -17 -15 -15 -16 -15 -14 -15 -14 -13 -13 -12 -12 -11 -11 -10 -10 -10 -10 -10 -10 -10 -9 -9 -9 -9 -9 -9 -9 -9 -9 -8 -8 -8 -7 -7 -7 -7 -7 -6 -7 -7 -7
-16 -16 -17 -17 -14 -15 -15 -15 -15 -15 -14 -13 -13 -14 -11 -10 -10 -10 -10 -10 -10 -9 -9 -9 -9 -9 -9 -9 -9 -9 -9 -9 -9 -8 -8 -8 -8 -7 -7 -7 -7 -6 -7 -6
-16 -16 -17 -14 -15 -16 -15 -15 -14 -14 -14 -13 -14 -13 -11 -12 -12 -12 -11 -10 -10 -10 -10 -9 -9 -9 -9 -9 -9 -9 -9 -9 -9 -8 -8 -8 -8 -8 -8 -9 -8 -7 -7 -7
-16 -16 -16 -14 -16 -16 -15 -15 -14 -14 -14 -14 -14 -14 -13 -13 -13 -13 -12 -11 -11 -10 -10 -10 -10 -9 -9 -9 -9 -9 -9 -9 -9 -9 -9 -9 -8 -9 -8 -9 -8 -7 -7 -7
-16 -16 -15 -15 -15 -15 -15 -15 -15 -15 -14 -14 -14 -14 -14 -14 -14 -13 -13 -12 -12 -11 -11 -11 -10 -10 -10 -9 -9 -9 -9 -9 -9 -9 -9 -9 -9 -9 -8 -8 -8 -8 -8 -7
-17 -17 -17 -16 -16 -16 -15 -15 -15 -15 -15 -15 -14 -14 -14 -14 -14 -14 -14 -13 -13 -12 -12 -12 -11 -11 -10 -10 -9 -9 -9 -8 -8 -8 -9 -9 -10 -9 -9 -8 -8 -8 -8 -8
-17 -17 -17 -17 -17 -16 -16 -16 -15 -15 -15 -15 -15 -15 -15 -15 -15 -14 -14 -14 -14 -13 -13 -13 -12 -12 -11 -11 -10 -10 -9 -9 -9 -8 -8 -8 -9 -10 -8 -8 -7 -7 -9 -9
-18 -18 -17 -17 -17 -17 -17 -17 -17 -16 -16 -16 -16 -16 -16 -16 -16 -16 -15 -15 -15 -14 -14 -14 -14 -13 -12 -12 -11 -10 -10 -10 -10 -9 -8 -8 -8 -8 -9 -8 -8 -8 -8 -7
-19 -18 -18 -18 -18 -18 -18 -17 -17 -17 -17 -17 -17 -17 -16 -16 -16 -16 -16 -16 -15 -16 -16 -15 -15 -14 -14 -13 -12 -11 -10 -10 -10 -10 -10 -9 -8 -8 -8 -9 -9 -8 -8 -7
-18 -18 -19 -18 -18 -18 -18 -18 -18 -17 -17 -17 -17 -17 -17 -17 -17 -17 -17 -17 -16 -16 -16 -16 -16 -15 -14 -13 -13 -12 -12 -11 -10 -10 -10 -10 -9 -9 -8 -8 -8 -9 -8 -7
-19 -18 -19 -18 -18 -19 -19 -19 -18 -18 -18 -18 -18 -17 -17 -17 -17 -17 -17 -17 -16 -16 -16 -16 -16 -16 -15 -14 -14 -13 -13 -12 -12 -11 -10 -10 -10 -9 -9 -8 -8 -8 -9 -9
-19 -19 -19 -19 -19 -19 -19 -19 -19 -19 -19 -19 -18 -18 -18 -18 -18 -18 -17 -17 -17 -17 -17 -17 -16 -16 -15 -15 -14 -14 -13 -12 -12 -12 -12 -11 -10 -10 -10 -9 -9 -8 -8 -9
-19 -19 -19 -19 -19 -19 -19 -19 -19 -20 -20 -20 -19 -19 -19 -19 -19 -19 -19 -19 -19 -18 -18 -18 -18 -17 -16 -16 -15 -14 -14 -13 -13 -12 -12 -12 -12 -12 -11 -10 -10 -9 -8 -8
-20 -20 -20 -20 -20 -20 -20 -20 -20 -20 -20 -20 -20 -20 -20 -20 -20 -20 -20 -20 -20 -20 -19 -19 -19 -19 -18 -18 -17 -16 -15 -13 -13 -12 -12 -12 -12 -13 -13 -12 -11 -10 -10 -9
-21 -20 -20 -20 -20 -20 -20 -20 -20 -20 -21 -21 -21 -21 -21 -21 -21 -21 -21 -21 -21 -21 -20 -20 -20 -20 -19 -19 -18 -17 -16 -14 -13 -13 -12 -12 -12 -13 -13 -13 -13 -12 -11 -10
-21 -21 -21 -21 -21 -21 -21 -21 -21 -21 -21 -21 -21 -21 -22 -22 -22 -22 -22 -22 -22 -22 -22 -22 -21 -21 -20 -19 -19 -18 -17 -16 -14 -13 -13 -13 -13 -13 -13 -13 -14 -14 -12 -11
-21 -21 -21 -21 -21 -21 -21 -22 -22 -21 -21 -22 -22 -22 -22 -22 -22 -22 -22 -22 -22 -22 -22 -23 -22 -22 -21 -20 -19 -18 -18 -16 -15 -14 -14 -13 -13 -14 -14 -14 -15 -14 -14 -13
-21 -21 -21 -21 -21 -21 -21 -21 -21 -22 -21 -21 -22 -22 -22 -23 -23 -23 -22 -23 -22 -22 -23 -22 -22 -22 -21 -20 -19 -18 -17 -16 -15 -14 -14 -14 -14 -14 -14 -15 -15 -15 -16 -14
-21 -21 -22 -22 -22 -22 -22 -22 -22 -22 -22 -21 -22 -22 -23 -23 -23 -23 -23 -23 -23 -23 -23 -23 -22 -22 -21 -20 -19 -19 -17 -16 -15 -14 -14 -15 -15 -15 -15 -15 -15 -16 -16 -17
-22 -22 -22 -22 -22 -23 -23 -23 -23 -23 -23 -22 -22 -23 -23 -23 -23 -23 -23 -23 -23 -23 -22 -23 -22 -22 -20 -20 -19 -19 -18 -18 -17 -16 -16 -16 -16 -15 -15 -15 -15 -16 -17 -16
-22 -22 -23 -24 -24 -25 -25 -24 -24 -24 -23 -23 -23 -24 -23 -23 -24 -23 -23 -23 -23 -23 -23 -23 -22 -22 -21 -20 -20 -19 -19 -18 -18 -17 -16 -16 -15 -16 -16 -16 -16 -17 -17 -17
-23 -23 -24 -24 -25 -25 -25 -24 -24 -25 -25 -23 -24 -24 -24 -24 -24 -24 -24 -24 -23 -23 -23 -23 -22 -22 -21 -20 -20 -19 -19 -18 -17 -17 -16 -16 -16 -16 -16 -16 -16 -16 -17 -17
-24 -24 -25 -25 -25 -25 -25 -25 -25 -25 -25 -25 -24 -24 -24 -24 -24 -24 -24 -24 -23 -24 -24 -23 -23 -22 -22 -21 -20 -19 -19 -18 -17 -17 -16 -16 -16 -16 -16 -16 -15 -16 -17 -18
Height
5778 5784 5790 5795 5801 5807 5814 5823 5833 5823 5823 5828 5834 5839 5844 5849 5854 5858 5862 5865 5868 5872 5874 5875 5876 5878 5882 5887 5893 5896 5899 5904 5906 5912 5916 5920 5923 5926 5930 5934 5937 5941 5945 5947
5772 5777 5779 5785 5790 5798 5803 5808 5815 5811 5810 5818 5827 5832 5837 5841 5845 5850 5854 5857 5860 5864 5867 5870 5873 5877 5877 5881 5887 5888 5893 5896 5899 5903 5907 5912 5916 5920 5923 5928 5932 5935 5939 5943
5769 5771 5773 5776 5781 5788 5793 5798 5804 5805 5803 5815 5820 5824 5828 5832 5837 5841 5844 5848 5851 5855 5857 5861 5865 5867 5871 5874 5878 5882 5885 5887 5891 5895 5899 5904 5907 5911 5917 5921 5924 5928 5931 5935
5765 5766 5767 5767 5776 5780 5784 5786 5792 5795 5795 5803 5811 5815 5816 5823 5827 5832 5836 5839 5843 5847 5849 5853 5856 5860 5863 5867 5869 5872 5874 5878 5883 5887 5890 5895 5900 5905 5909 5914 5918 5923 5926 5928
5757 5762 5764 5763 5766 5769 5771 5776 5782 5786 5790 5793 5799 5801 5806 5809 5816 5821 5826 5830 5834 5838 5841 5845 5848 5851 5855 5858 5861 5864 5868 5871 5874 5879 5884 5888 5891 5896 5901 5905 5910 5915 5919 5922
5751 5753 5758 5752 5759 5763 5765 5766 5773 5775 5780 5785 5789 5788 5788 5803 5805 5810 5814 5819 5823 5826 5829 5834 5838 5841 5845 5849 5851 5855 5859 5863 5866 5870 5874 5879 5884 5887 5891 5895 5900 5904 5909 5915
5744 5746 5747 5745 5753 5756 5758 5760 5764 5766 5771 5774 5774 5776 5786 5790 5794 5797 5801 5806 5810 5814 5817 5821 5825 5829 5832 5837 5841 5845 5849 5852 5856 5859 5864 5868 5872 5877 5883 5886 5889 5893 5898 5903
5737 5739 5741 5739 5747 5748 5749 5751 5752 5757 5760 5763 5766 5768 5772 5775 5782 5785 5788 5793 5796 5800 5804 5808 5811 5815 5820 5824 5829 5834 5838 5841 5844 5848 5852 5856 5861 5866 5870 5873 5876 5876 5885 5891
5729 5729 5732 5732 5736 5739 5741 5743 5745 5746 5750 5752 5755 5759 5761 5762 5767 5772 5776 5780 5783 5787 5790 5793 5796 5801 5805 5809 5814 5818 5824 5829 5832 5835 5840 5843 5847 5854 5858 5861 5864 5867 5874 5881
5721 5722 5723 5724 5726 5729 5732 5734 5736 5738 5740 5742 5745 5748 5750 5750 5754 5757 5761 5765 5769 5772 5775 5778 5781 5784 5788 5793 5797 5802 5808 5813 5817 5822 5825 5830 5834 5840 5844 5851 5856 5858 5863 5868
5714 5714 5715 5717 5718 5720 5722 5724 5727 5728 5730 5732 5734 5736 5738 5739 5741 5744 5746 5750 5753 5755 5758 5760 5764 5768 5771 5774 5779 5785 5790 5796 5801 5806 5810 5815 5820 5824 5831 5836 5842 5847 5852 5856
5707 5707 5708 5709 5711 5712 5714 5715 5717 5719 5721 5723 5725 5727 5728 5729 5730 5731 5734 5736 5739 5741 5742 5744 5746 5749 5751 5756 5761 5766 5771 5777 5781 5787 5793 5798 5803 5811 5815 5821 5825 5831 5838 5843
5697 5696 5698 5700 5703 5704 5706 5707 5709 5710 5712 5714 5716 5718 5720 5720 5720 5721 5722 5722 5723 5725 5727 5728 5728 5730 5732 5736 5740 5746 5752 5756 5761 5767 5772 5777 5783 5790 5798 5804 5808 5814 5822 5827
5686 5687 5689 5690 5691 5693 5695 5697 5699 5700 5702 5703 5705 5707 5709 5709 5709 5710 5710 5710 5710 5709 5710 5712 5712 5712 5715 5718 5721 5725 5729 5735 5739 5745 5751 5756 5762 5768 5775 5784 5791 5797 5802 5810
5676 5676 5677 5677 5680 5682 5683 5686 5688 5689 5690 5692 5692 5693 5695 5696 5698 5698 5697 5696 5694 5694 5693 5693 5694 5694 5695 5698 5701 5704 5708 5712 5718 5723 5728 5735 5741 5747 5753 5762 5770 5778 5786 5792
5665 5666 5667 5668 5670 5672 5673 5675 5676 5677 5678 5679 5680 5680 5681 5682 5683 5683 5682 5682 5681 5679 5677 5675 5674 5674 5674 5676 5679 5683 5687 5692 5696 5701 5706 5712 5717 5723 5730 5736 5744 5754 5763 5774
5658 5658 5659 5659 5660 5662 5663 5664 5665 5665 5666 5666 5666 5667 5667 5667 5668 5668 5667 5666 5666 5664 5662 5659 5656 5653 5653 5654 5656 5660 5664 5671 5675 5679 5684 5689 5693 5698 5705 5713 5720 5727 5738 5748
5652 5653 5652 5652 5652 5653 5654 5654 5654 5654 5654 5654 5654 5654 5654 5654 5654 5653 5653 5651 5651 5648 5644 5641 5639 5635 5632 5632 5634 5636 5640 5646 5652 5658 5662 5666 5671 5677 5682 5688 5696 5703 5711 5721
5645 5644 5644 5644 5644 5643 5643 5642 5642 5641 5642 5642 5642 5640 5640 5640 5640 5639 5639 5637 5635 5633 5629 5625 5622 5619 5616 5615 5614 5615 5617 5622 5629 5635 5640 5644 5649 5654 5660 5666 5672 5678 5685 5693
5639 5637 5636 5635 5634 5633 5633 5633 5633 5631 5631 5630 5630 5628 5627 5626 5626 5626 5625 5624 5622 5620 5614 5610 5607 5604 5600 5598 5597 5597 5599 5601 5607 5613 5617 5622 5627 5632 5638 5643 5648 5653 5658 5665
5631 5629 5627 5625 5624 5622 5622 5621 5620 5618 5618 5617 5617 5616 5615 5615 5615 5614 5613 5611 5610 5606 5602 5597 5593 5590 5586 5584 5582 5581 5582 5584 5588 5593 5597 5603 5608 5613 5616 5620 5623 5627 5632 5635
5623 5620 5617 5614 5611 5609 5608 5606 5605 5605 5606 5608 5601 5604 5603 5602 5603 5603 5604 5601 5598 5597 5590 5584 5581 5577 5574 5571 5570 5569 5567 5568 5571 5576 5579 5583 5589 5594 5597 5599 5601 5603 5602 5602
5613 5609 5605 5601 5597 5593 5591 5589 5589 5590 5592 5595 5593 5593 5592 5591 5593 5593 5593 5593 5588 5586 5580 5574 5570 5566 5562 5560 5558 5555 5553 5554 5557 5559 5562 5566 5571 5575 5579 5580 5580 5580 5580 5578
5602 5597 5591 5585 5580 5575 5572 5570 5570 5572 5576 5577 5573 5579 5579 5580 5583 5585 5584 5583 5580 5575 5571 5565 5562 5556 5552 5550 5547 5545 5543 5542 5544 5546 5549 5553 5556 5559 5560 5560 5559 5557 5558 5559
5590 5583 5577 5570 5563 5558 5554 5551 5551 5553 5561 5565 5566 5564 5568 5573 5575 5576 5575 5574 5572 5567 5560 5556 5553 5548 5544 5542 5540 5537 5535 5534 5536 5538 5540 5542 5544 5544 5542 5541 5539 5536 5537 5540
5579 5572 5566 5558 5552 5548 5545 5541 5538 5541 5548 5554 5557 5560 5562 5566 5567 5568 5566 5566 5563 5560 5554 5548 5545 5540 5537 5535 5532 5530 5528 5528 5529 5530 5531 5532 5531 5530 5527 5523 5520 5517 5518 5519
5572 5565 5559 5552 5548 5546 5543 5540 5540 5542 5546 5551 5554 5556 5557 5559 5560 5560 5560 5558 5556 5552 5547 5543 5540 5535 5532 5528 5526 5525 5523 5522 5522 5522 5523 5523 5521 5517 5511 5502 5493 5495 5499 5501
Wind_Speed
37 39 34 30 48 47 46 41 25 37 43 49 41 40 35 39 41 41 39 40 38 37 35 31 26 21 31 27 29 30 28 28 28 29 32 32 29 27 27 26 24 25 24 21
41 43 47 46 47 51 49 46 43 27 46 50 48 44 38 39 41 42 44 44 42 40 39 36 37 32 29 24 32 34 32 30 33 32 32 33 35 34 32 30 28 27 26 24
18 34 47 49 52 43 44 46 42 37 58 47 42 43 41 40 41 43 45 47 48 47 45 43 41 40 38 36 41 34 33 37 39 37 36 36 37 39 37 35 35 33 31 29
22 28 28 32 42 46 40 47 44 52 56 53 51 47 43 44 44 44 44 46 48 49 49 49 48 47 46 44 44 45 34 32 34 43 39 38 37 38 40 40 37 37 36 35
29 27 22 32 32 33 36 43 39 44 48 49 48 49 49 50 48 48 47 49 49 49 50 52 53 51 50 49 48 45 43 39 39 31 41 40 38 38 38 41 42 40 39 39
28 30 25 31 29 29 32 40 38 44 45 46 46 47 56 50 51 50 50 50 51 51 52 52 52 53 54 54 54 52 50 48 44 44 38 39 46 43 43 43 44 46 45 44
28 29 31 31 24 25 29 37 34 38 41 44 49 52 52 50 52 54 55 55 55 56 56 56 55 55 56 56 55 54 53 52 50 48 46 45 44 36 45 42 49 48 47 48
35 37 38 34 31 33 32 32 36 35 37 38 39 41 48 52 50 52 55 58 59 60 61 61 61 61 60 59 58 56 56 56 54 52 52 52 51 47 43 42 52 55 53 49
33 40 41 41 37 37 36 34 34 36 37 40 41 42 44 47 46 46 50 55 59 60 62 64 66 66 65 65 64 62 61 59 59 58 56 55 53 50 46 41 38 39 47 48
24 28 31 35 36 38 39 38 36 37 39 41 41 42 44 48 49 49 49 50 52 55 58 62 65 67 69 70 71 70 68 66 65 63 62 60 57 55 54 51 48 51 48 52
24 23 25 29 32 33 34 34 35 35 35 35 37 39 43 47 49 51 53 52 54 56 57 59 62 64 68 70 73 73 74 73 71 70 68 66 65 62 59 59 55 58 51 45
27 30 28 27 27 28 28 28 29 30 30 31 32 33 34 38 41 44 49 52 52 53 55 57 60 63 66 68 70 73 75 76 76 76 75 74 71 68 67 64 63 62 57 53
31 35 34 34 32 33 34 33 32 33 33 34 35 36 37 37 39 41 42 46 47 44 45 51 56 63 65 67 71 73 74 76 78 78 79 80 80 77 73 70 69 68 63 57
31 33 32 38 37 37 38 38 37 37 39 38 37 37 38 40 42 42 44 45 47 48 50 52 53 60 66 67 69 69 72 74 77 80 81 81 83 83 82 78 75 73 71 66
28 36 36 38 41 37 37 38 38 41 42 43 44 43 43 44 45 46 48 49 52 57 61 60 59 60 62 65 66 67 68 69 71 74 79 83 84 85 86 85 83 80 76 73
21 25 31 31 33 34 36 36 36 35 37 41 43 43 42 43 45 48 49 52 55 58 56 56 59 61 62 62 65 68 67 66 66 68 70 76 81 85 87 89 89 87 84 79
15 16 25 24 25 26 29 32 33 33 36 38 39 41 42 42 43 46 47 50 52 55 56 53 54 59 63 66 65 67 70 68 65 64 68 67 71 78 82 87 92 93 90 87
15 18 18 19 22 21 24 27 29 33 35 37 39 41 40 41 44 46 47 49 50 50 51 51 52 52 55 60 63 65 67 69 68 65 64 67 70 69 70 75 83 93 96 94
16 19 21 25 29 31 32 32 33 34 35 37 38 39 41 43 46 47 47 44 43 44 46 46 47 50 52 52 55 57 62 64 65 62 62 64 67 69 70 70 72 81 90 97
17 18 20 23 26 28 30 31 33 34 36 37 36 38 36 38 40 38 36 37 40 39 44 44 43 46 48 46 44 45 51 53 56 59 59 61 62 66 70 72 73 72 79 92
22 23 25 26 27 29 31 33 37 38 38 40 39 38 34 36 37 35 33 35 31 36 42 40 39 39 44 41 38 40 43 46 50 52 54 57 60 61 62 69 71 73 77 84
26 26 29 31 33 35 35 35 38 39 38 40 42 37 31 32 30 32 34 36 38 37 41 37 34 36 38 34 31 31 38 42 43 47 49 53 54 51 52 55 58 58 57 71
29 30 32 34 36 37 38 39 36 38 39 39 46 37 36 33 32 31 33 31 35 37 42 35 32 32 29 28 27 24 27 32 38 41 45 48 49 50 53 56 61 65 60 54
30 33 36 37 37 36 35 34 34 34 32 37 45 36 32 30 33 30 29 31 37 36 41 38 31 30 23 24 24 24 25 27 29 32 34 37 41 43 45 51 53 59 59 55
33 34 31 30 28 29 32 33 32 33 34 27 32 32 30 32 26 27 28 32 33 35 42 37 29 28 21 20 22 22 20 23 26 29 30 33 36 42 39 40 47 56 59 57
30 28 25 22 22 20 20 16 16 22 32 38 39 36 32 29 24 27 29 31 33 35 35 36 28 25 24 20 19 20 16 18 21 25 27 31 30 35 39 42 47 46 50 49
25 23 21 16 9 6 5 6 9 5 21 20 18 16 22 27 24 22 23 26 31 32 31 28 26 22 19 22 17 17 16 15 17 20 20 22 24 30 37 44 46 46 44 40
Wind_Direction
197 205 197 214 220 219 219 213 210 239 229 231 232 230 222 215 216 218 222 225 229 233 241 250 240 241 231 221 230 231 226 225 237 242 243 239 238 241 242 240 233 232 231 231
204 207 208 217 219 216 217 213 204 231 231 228 228 231 224 222 220 221 223 225 227 230 235 238 236 233 240 228 239 235 232 235 233 230 233 239 239 240 240 241 238 231 230 232
222 223 215 219 219 216 218 218 204 226 230 230 232 233 230 228 227 226 225 226 228 229 231 234 239 245 244 244 241 242 237 234 234 232 230 233 235 237 241 241 236 230 226 227
217 239 237 234 224 221 220 222 222 223 234 231 235 238 236 233 231 230 230 231 232 233 233 235 237 240 244 247 249 248 261 254 238 234 230 233 239 241 239 241 244 240 235 229
226 233 237 237 233 231 227 230 227 232 235 240 238 241 238 238 237 237 236 235 235 235 236 237 239 240 242 247 249 252 255 259 259 258 237 236 234 240 243 244 241 242 242 238
226 230 226 239 228 234 233 240 232 236 236 238 240 242 238 236 238 238 238 238 239 239 239 238 239 241 242 243 248 250 252 253 254 254 254 244 241 238 238 242 246 244 244 245
229 226 231 239 234 236 239 241 235 236 237 237 239 242 244 240 241 242 242 240 240 240 242 242 241 241 242 242 243 246 248 251 251 252 251 250 254 251 244 258 248 244 243 245
232 235 236 241 239 241 244 244 249 245 244 245 245 247 246 246 242 242 243 242 243 243 242 242 244 245 244 244 244 243 243 246 247 247 250 252 251 250 249 260 259 255 236 243
236 236 239 244 243 239 238 240 246 250 248 248 248 248 249 252 251 247 246 246 245 245 246 246 244 244 245 247 246 246 245 244 245 245 245 249 251 250 252 256 251 233 236 239
239 238 237 239 238 235 236 240 245 247 246 246 248 250 251 254 255 256 255 252 251 249 248 248 248 248 246 245 246 247 246 245 245 245 245 245 247 248 248 247 242 245 241 239
239 237 239 239 239 238 236 236 238 241 244 246 248 249 251 253 257 257 257 257 257 256 255 254 251 249 249 249 247 246 247 247 247 246 246 246 245 246 246 248 241 243 253 250
240 241 237 234 234 230 227 230 232 236 240 243 246 248 251 254 257 258 258 258 258 258 259 259 259 258 256 252 249 249 247 246 247 248 247 248 247 245 247 246 249 249 249 249
238 239 239 240 236 237 238 240 241 239 237 239 241 247 253 260 262 264 262 259 257 257 260 258 259 259 258 258 256 252 249 250 248 247 248 248 247 247 246 246 248 250 248 251
249 243 242 241 242 244 244 245 245 245 246 247 247 252 258 261 261 259 256 260 259 259 261 267 261 260 259 259 258 258 256 252 250 249 248 248 248 248 247 246 246 247 250 246
261 251 252 244 240 244 248 248 247 248 249 250 253 255 257 259 259 260 264 270 274 276 275 273 270 264 262 260 259 256 255 255 254 252 250 248 247 248 249 247 246 246 246 248
275 248 257 252 243 245 245 248 250 250 253 256 258 261 264 265 268 271 273 274 276 278 275 271 266 263 263 262 260 258 255 253 254 253 252 250 248 247 246 248 247 246 245 245
278 253 253 257 250 248 255 253 254 256 257 259 263 266 269 275 277 276 275 276 276 273 277 278 271 264 262 261 258 256 253 252 251 253 254 254 251 249 247 246 246 247 246 245
269 257 258 255 256 254 262 266 265 262 264 265 268 273 276 274 272 274 274 278 281 285 283 277 274 270 266 263 261 257 250 249 249 251 250 251 251 250 251 250 246 244 245 245
272 261 258 260 265 269 272 272 270 270 270 270 270 271 269 268 271 275 278 279 282 284 284 282 280 275 267 265 260 255 250 244 244 246 248 249 246 245 247 249 251 247 243 243
289 279 273 269 268 268 269 268 268 265 266 268 271 274 276 269 269 273 276 279 282 286 289 288 282 276 273 273 266 254 249 244 242 245 247 245 246 245 248 249 249 253 249 241
293 289 287 284 278 274 272 269 265 268 269 270 272 273 272 270 272 281 272 277 281 290 296 294 281 278 277 276 268 261 257 245 243 246 249 246 247 244 249 247 250 253 253 250
290 288 284 280 277 274 270 268 267 266 267 255 264 272 266 262 275 272 271 273 283 296 306 296 287 285 283 278 271 259 255 250 248 246 249 245 239 239 247 252 254 257 262 250
297 294 290 287 285 280 275 270 261 257 251 242 256 259 263 267 274 265 267 277 288 292 310 301 293 290 279 273 274 287 270 259 254 253 249 242 242 244 251 254 256 256 259 258
302 300 298 294 289 284 277 270 263 254 247 243 249 236 251 263 261 258 267 277 289 299 311 309 298 295 282 277 288 292 280 262 255 247 241 241 247 252 263 261 260 257 253 255
312 309 306 303 295 288 284 278 266 247 222 215 230 254 262 262 251 266 271 278 290 303 309 305 299 299 293 291 293 299 283 258 255 255 252 252 264 263 255 262 271 256 252 256
322 321 321 308 292 286 294 291 270 236 207 213 234 241 235 245 259 268 273 280 291 298 303 300 301 299 294 299 310 310 300 259 250 258 258 264 269 270 269 271 265 259 255 256
338 339 349 342 315 336 34 44 108 170 186 205 220 241 238 242 254 261 270 288 302 301 301 297 302 297 290 304 321 318 314 284 264 262 266 265 279 289 286 288 270 246 247 254